Regional Weather Roundup
Issued by NWS

Home | Current Version | Previous Version | Text Only | Print | Product List | Glossary On
Versions: 1 2 3 4 5 6 7 8 9 10 11 12 13 14 15 16 17 18 19 20 21 22 23 24 25 26 27 28 29 30 31 32 33 34 35 36 37 38 39 40 41 42 43 44 45 46 47 48 49 50
000
ASCA44 KEWX 161420
RWRMX

LATIN AMERICA AND CARIBBEAN REGIONAL WEATHER ROUNDUP
NATIONAL WEATHER SERVICE AUSTIN/SAN ANTONIO TX
900 AM CDT WED APR 16 2014

NOTE: "FAIR" INDICATED FEW OR NO CLOUDS BELOW 12,000 FEET WITH NO
SIGNIFICANT WEATHER AND/OR OBSTRUCTIONS TO VISIBILITY.

BAJA CALIFORNIA

CITY           SKY/WX    TMP DP  RH WIND       PRES   REMARKS
MEXICALI       CLEAR     63  28  27 CALM      29.72R
TIJUANA        CLOUDY    55  50  82 CALM      29.88R FOG

NORTHWESTERN MEXICO

CITY           SKY/WX    TMP DP  RH WIND       PRES   REMARKS
CULIACAN       PTSUNNY   72  64  78 CALM      29.88
DURANGO        PTSUNNY   52  36  54 S7        30.13
GUAYMAS        PTSUNNY   66  48  52 CALM      29.74
HERMOSILLO     CLOUDY    70  25  18 E5        29.80
CD. JUAREZ     MOSUNNY   54  19  26 CALM      29.88
OBREGON        CLOUDY    66  61  82 E12       29.79

NORTHEASTERN MEXICO

CITY           SKY/WX    TMP DP  RH WIND       PRES   REMARKS
CHIHUAHUA      CLOUDY    48  21  34 SE3       29.99
MATAMOROS      PTSUNNY   59  54  82 CALM      30.11
MONCLOVA       MOSUNNY   54  27  35 CALM      30.00R
MONTERREY      PTSUNNY   50  41  71 E5        30.07R WCI  48
NUEVO LAREDO   MOSUNNY   54  41  62 SE7       30.10
PIEDRAS NEGRAS MOSUNNY   55  37  50 SE9       30.07S
REYNOSA        PTSUNNY   54  45  71 E7        30.08
SALTILLO       PTSUNNY   52  37  58 CALM      30.11R
TORREON        PTSUNNY   59  28  31 CALM      30.01R
CD. VICTORIA   SUNNY     55  41  58 CALM      30.06

WESTERN MEXICO

CITY           SKY/WX    TMP DP  RH WIND       PRES   REMARKS
AGUASCALIENTES SUNNY     54  37  54 CALM      30.19
COLIMA         SUNNY     70  54  56 CALM      29.99R
DEL BAJIO      SUNNY     57  41  54 CALM      30.21R
GUADALAJARA    SUNNY     66  50  55 CALM      30.12
MANZANILLO     PTSUNNY   77  70  78 N7        29.87R
MAZATLAN       MOSUNNY   59  55  88 N10       29.88R
P. VALLARTA    PTSUNNY   72  66  83 N3        29.88F
URUAPAN        SUNNY     57  45  62 CALM      30.17S
ZACATECAS      SUNNY     55  36  47 SW12      30.17R

CENTRAL MEXICO

CITY           SKY/WX    TMP DP  RH WIND       PRES   REMARKS
CUERNAVACA     PTSUNNY   66  55  68 CALM      30.13R
MEXICO CITY    SUNNY     59  48  67 E8        30.27R
MORELIA        SUNNY     61  43  51 CALM      30.19
POZA RICA      MOSUNNY   61  55  82 NW5       30.13R
PUEBLA         MOSUNNY   57  50  77 CALM      30.32R
QUERETARO      SUNNY     48  45  87 CALM      30.23S
S. LUIS POTOSI SUNNY     46  36  66 CALM      30.18R
TAMPICO        SUNNY     63  46  55 CALM      30.09S
TOLUCA         PTSUNNY   50  45  81 NE3       30.34R FOG

SOUTHERN MEXICO

CITY           SKY/WX    TMP DP  RH WIND       PRES   REMARKS
ACAPULCO       SUNNY     79  70  73 N5        29.87R
B. DE HUATULCO SUNNY     77  66  69 CALM      29.90
OAXACA         SUNNY     59  46  63 SE3       30.23R
P. ESCONDIDO   SUNNY     79  63  57 E12       30.00F
VERACRUZ       SUNNY     68  52  56 CALM      30.10R
ZIHUATANEJO    SUNNY     75  68  78 CALM      29.88R

YUCATAN PENINSULA

CITY           SKY/WX    TMP DP  RH WIND       PRES   REMARKS
CAMPECHE       CLOUDY    73  70  88 NE9       29.98R
CANCUN         PTSUNNY   81  75  83 CALM      29.97F
CHETUMAL       CLOUDY    75  70  83 N7        29.94R
CD. DEL CARMEN CLOUDY    73  70  88 N15       30.00
COZUMEL        PTSUNNY   79  73  83 SE3       29.96S
MERIDA         PTSUNNY   77  68  73 NE10      29.99S
MINATITLAN     CLOUDY    68  64  88 CALM      30.06
TAPACHULA      MOSUNNY   81  72  74 SE8       29.87R
TUX. GUTIERREZ CLOUDY    66  57  72 NW12      30.09R
VILLAHERMOSA   CLOUDY    66  64  94 SW5       30.09R FOG

CENTRAL AMERICA

CITY           SKY/WX    TMP DP  RH WIND       PRES   REMARKS
BELIZE CITY    PTSUNNY   75  72  88 W12       29.97R
MANAGUA        MOSUNNY   84  72  65 E12       29.89R

CARIBBEAN

CITY           SKY/WX    TMP DP  RH WIND       PRES   REMARKS
ARUBA          MOSUNNY   86  75  70 E22       29.89S HX  95
CURACAO        MOSUNNY   84  75  74 E13       29.94S HX  92
KINGSTON       MOSUNNY  N/A N/A N/A SE7       29.97R
NASSAU         MOSUNNY   81  70  69 S8        30.02R
SAN JUAN       MOSUNNY   82  72  69 NE13      30.01S
SANTO DOMINGO  MOSUNNY   82  75  78 E12       29.97S
ST. CROIX      RAIN      79  72  78 NE3       30.01R
ST. KITTS      MOSUNNY   82  72  69 E10       30.00R
ST. MAARTEN    MOSUNNY   82  70  65 E8        30.00S
ST. THOMAS     MOSUNNY   82  72  69 SE8       30.01R

$$




USA.gov is the U.S. government's official web portal to all federal, state and local government web resources and services.